| time (UTC) | temp F | wind direction | speed knots | gust knots | rain 1hr in | rain 24hr in | rain mn in | humidity % | barometer mb |
| 20260507102634 | 66 | 315 | 0.9 | 7.0 | 0.00 | 0.00 | 0.00 | 52 | 1015.8 |
| 20260507102132 | 66 | 249 | 0.9 | 7.0 | 0.00 | 0.00 | 0.00 | 52 | 1015.8 |
| 20260507101631 | 66 | 248 | 0.9 | 7.0 | 0.00 | 0.00 | 0.00 | 51 | 1015.8 |
| 20260507101132 | 67 | 322 | 0.0 | 2.6 | 0.00 | 0.00 | 0.00 | 52 | 1015.8 |
| 20260507100628 | 67 | 322 | 0.0 | 2.6 | 0.00 | 0.00 | 0.00 | 51 | 1015.8 |
| 20260507100126 | 67 | 322 | 0.0 | 2.6 | 0.00 | 0.00 | 0.00 | 50 | 1015.7 |
| 20260507095622 | 67 | 322 | 0.9 | 2.6 | 0.00 | 0.00 | 0.00 | 50 | 1015.6 |
| 20260507095120 | 67 | 322 | 0.9 | 1.7 | 0.00 | 0.00 | 0.00 | 50 | 1015.4 |
| 20260507094619 | 68 | 322 | 0.0 | 3.5 | 0.00 | 0.00 | 0.00 | 50 | 1015.4 |
| 20260507094120 | 68 | 322 | 0.0 | 3.5 | 0.00 | 0.00 | 0.00 | 49 | 1015.5 |
| 20260507093621 | 68 | 313 | 0.9 | 3.5 | 0.00 | 0.00 | 0.00 | 48 | 1015.5 |
| 20260507093054 | 68 | 313 | 1.7 | 5.2 | 0.00 | 0.00 | 0.00 | 47 | 1015.5 |
| 20260507092553 | 68 | 294 | 0.9 | 5.2 | 0.00 | 0.00 | 0.00 | 47 | 1015.4 |
| 20260507092050 | 69 | 217 | 0.0 | 2.6 | 0.00 | 0.00 | 0.00 | 47 | 1015.4 |
| 20260507091548 | 69 | 216 | 0.0 | 0.9 | 0.00 | 0.00 | 0.00 | 47 | 1015.4 |
| 20260507091048 | 69 | 216 | 0.0 | 2.6 | 0.00 | 0.00 | 0.00 | 46 | 1015.4 |
| 20260507090559 | 70 | 216 | 0.0 | 2.6 | 0.00 | 0.00 | 0.00 | 45 | 1015.2 |
| 20260507090056 | 70 | 216 | 0.9 | 2.6 | 0.00 | 0.00 | 0.00 | 45 | 1015.2 |
| 20260507085542 | 70 | 216 | 0.9 | 3.5 | 0.00 | 0.00 | 0.00 | 46 | 1015.1 |
| 20260507085040 | 70 | 252 | 0.9 | 3.5 | 0.00 | 0.00 | 0.00 | 45 | 1015.0 |
| 20260507084538 | 70 | 291 | 0.9 | 2.6 | 0.00 | 0.00 | 0.00 | 44 | 1015.0 |
| 20260507084037 | 71 | 260 | 0.9 | 2.6 | 0.00 | 0.00 | 0.00 | 44 | 1014.9 |
| 20260507083534 | 71 | 272 | 0.9 | 3.5 | 0.00 | 0.00 | 0.00 | 44 | 1014.9 |
| 20260507083027 | 71 | 314 | 0.9 | 3.5 | 0.00 | 0.00 | 0.00 | 43 | 1014.9 |
| 20260507082526 | 71 | 220 | 0.9 | 6.1 | 0.00 | 0.00 | 0.00 | 43 | 1014.8 |
| 20260507082024 | 71 | 284 | 1.7 | 6.1 | 0.00 | 0.00 | 0.00 | 44 | 1014.7 |
| 20260507081525 | 71 | 331 | 0.9 | 4.3 | 0.00 | 0.00 | 0.00 | 43 | 1014.5 |
| 20260507081004 | 72 | 288 | 0.9 | 2.6 | 0.00 | 0.00 | 0.00 | 42 | 1014.4 |
| 20260507080505 | 72 | 267 | 0.9 | 2.6 | 0.00 | 0.00 | 0.00 | 43 | 1014.3 |
| 20260507075942 | 72 | 267 | 0.9 | 1.7 | 0.00 | 0.00 | 0.00 | 42 | 1014.3 |
| 20260507075440 | 72 | 267 | 0.9 | 7.0 | 0.00 | 0.00 | 0.00 | 42 | 1014.3 |
| 20260507074940 | 72 | 268 | 0.9 | 7.0 | 0.00 | 0.00 | 0.00 | 41 | 1014.3 |
| 20260507074436 | 72 | 26 | 0.9 | 6.1 | 0.00 | 0.00 | 0.00 | 42 | 1014.3 |
| 20260507073935 | 73 | 270 | 1.7 | 6.1 | 0.00 | 0.00 | 0.00 | 42 | 1014.2 |
| 20260507073441 | 73 | 258 | 0.9 | 7.0 | 0.00 | 0.00 | 0.00 | 44 | 1014.0 |
| 20260507072933 | 73 | 208 | 0.9 | 7.0 | 0.00 | 0.00 | 0.00 | 45 | 1014.0 |
| 20260507072433 | 73 | 308 | 0.0 | 1.7 | 0.00 | 0.00 | 0.00 | 45 | 1013.9 |
| 20260507071927 | 73 | 308 | 0.0 | 1.7 | 0.00 | 0.00 | 0.00 | 45 | 1013.8 |
| 20260507071643 | 74 | 308 | 0.0 | 1.7 | 0.00 | 0.00 | 0.00 | 45 | 1013.7 |
| 20260507070922 | 74 | 308 | 0.9 | 6.1 | 0.00 | 0.00 | 0.00 | 44 | 1013.5 |
| 20260507070643 | 74 | 308 | 1.7 | 6.1 | 0.00 | 0.00 | 0.00 | 44 | 1013.5 |
| 20260507065919 | 74 | 333 | 1.7 | 8.7 | 0.00 | 0.00 | 0.00 | 45 | 1013.4 |
| 20260507065642 | 74 | 303 | 2.6 | 8.7 | 0.00 | 0.00 | 0.00 | 44 | 1013.2 |
| 20260507064922 | 74 | 313 | 1.7 | 6.1 | 0.00 | 0.00 | 0.00 | 45 | 1013.3 |
| 20260507064402 | 75 | 306 | 1.7 | 6.1 | 0.00 | 0.00 | 0.00 | 44 | 1013.4 |
| 20260507064123 | 75 | 317 | 1.7 | 7.0 | 0.00 | 0.00 | 0.00 | 44 | 1013.4 |
| 20260507063404 | 75 | 272 | 1.7 | 7.0 | 0.00 | 0.00 | 0.00 | 44 | 1013.4 |
| 20260507062901 | 75 | 318 | 1.7 | 7.0 | 0.00 | 0.00 | 0.00 | 45 | 1013.4 |
| 20260507062401 | 75 | 316 | 1.7 | 7.0 | 0.00 | 0.00 | 0.00 | 45 | 1013.3 |
| 20260507061900 | 76 | 301 | 0.9 | 7.0 | 0.00 | 0.00 | 0.00 | 46 | 1013.3 |
| 20260507061358 | 76 | 318 | 0.9 | 7.0 | 0.00 | 0.00 | 0.00 | 47 | 1013.3 |
| 20260507060856 | 76 | 297 | 0.9 | 7.0 | 0.00 | 0.00 | 0.00 | 46 | 1013.2 |
| 20260507060354 | 76 | 322 | 0.9 | 7.0 | 0.00 | 0.00 | 0.00 | 46 | 1013.2 |
| 20260507055855 | 77 | 313 | 0.9 | 7.0 | 0.00 | 0.00 | 0.00 | 47 | 1013.1 |
| 20260507055353 | 77 | 229 | 1.7 | 7.8 | 0.00 | 0.00 | 0.00 | 45 | 1013.2 |
| 20260507054853 | 77 | 315 | 0.9 | 7.8 | 0.00 | 0.00 | 0.00 | 46 | 1013.1 |
| 20260507054350 | 78 | 342 | 0.9 | 4.3 | 0.00 | 0.00 | 0.00 | 46 | 1013.1 |
| 20260507053850 | 78 | 317 | 1.7 | 3.5 | 0.00 | 0.00 | 0.00 | 48 | 1013.0 |
| 20260507053615 | 78 | 289 | 1.7 | 7.0 | 0.00 | 0.00 | 0.00 | 47 | 1012.8 |
| 20260507053114 | 78 | 278 | 1.7 | 7.0 | 0.00 | 0.00 | 0.00 | 47 | 1012.7 |
| 20260507052549 | 79 | 299 | 1.7 | 6.1 | 0.00 | 0.00 | 0.00 | 49 | 1012.9 |
| 20260507051826 | 79 | 328 | 1.7 | 6.1 | 0.00 | 0.00 | 0.00 | 48 | 1012.8 |
| 20260507051325 | 78 | 311 | 1.7 | 7.8 | 0.00 | 0.00 | 0.00 | 49 | 1012.8 |
| 20260507050821 | 78 | 333 | 1.7 | 7.8 | 0.00 | 0.00 | 0.00 | 49 | 1012.9 |
| 20260507050320 | 78 | 313 | 1.7 | 7.8 | 0.00 | 0.00 | 0.00 | 49 | 1012.9 |
| 20260507045818 | 79 | 278 | 1.7 | 7.8 | 0.00 | 0.00 | 0.00 | 49 | 1012.9 |
| 20260507045315 | 79 | 333 | 1.7 | 7.0 | 0.00 | 0.00 | 0.00 | 49 | 1012.9 |
| 20260507044813 | 79 | 259 | 1.7 | 7.0 | 0.00 | 0.00 | 0.00 | 48 | 1013.0 |
| 20260507044311 | 79 | 339 | 0.9 | 7.0 | 0.00 | 0.00 | 0.00 | 50 | 1013.1 |
| 20260507043810 | 79 | 298 | 1.7 | 7.0 | 0.00 | 0.00 | 0.00 | 50 | 1013.2 |
| 20260507043527 | 79 | 322 | 1.7 | 9.6 | 0.00 | 0.00 | 0.00 | 50 | 1013.3 |
| 20260507042805 | 79 | 262 | 1.7 | 9.6 | 0.00 | 0.00 | 0.00 | 50 | 1013.3 |
| 20260507042307 | 79 | 305 | 2.6 | 9.6 | 0.00 | 0.00 | 0.00 | 51 | 1013.3 |
| 20260507041758 | 80 | 310 | 2.6 | 9.6 | 0.00 | 0.00 | 0.00 | 49 | 1013.3 |
| 20260507041255 | 80 | 310 | 1.7 | 7.0 | 0.00 | 0.00 | 0.00 | 51 | 1013.4 |
| 20260507040755 | 80 | 314 | 1.7 | 5.2 | 0.00 | 0.00 | 0.00 | 52 | 1013.2 |
| 20260507040257 | 80 | 239 | 1.7 | 5.2 | 0.00 | 0.00 | 0.00 | 52 | 1013.3 |
| 20260507035735 | 80 | 258 | 1.7 | 9.6 | 0.00 | 0.00 | 0.00 | 53 | 1013.5 |
| 20260507035237 | 80 | 295 | 1.7 | 10.4 | 0.00 | 0.00 | 0.00 | 52 | 1013.4 |
| 20260507034955 | 80 | 280 | 1.7 | 10.4 | 0.00 | 0.00 | 0.00 | 52 | 1013.3 |
| 20260507034233 | 80 | 242 | 1.7 | 5.2 | 0.00 | 0.00 | 0.00 | 53 | 1013.3 |
| 20260507033733 | 80 | 269 | 1.7 | 6.1 | 0.00 | 0.00 | 0.00 | 53 | 1013.3 |
| 20260507033228 | 80 | 266 | 1.7 | 6.1 | 0.00 | 0.00 | 0.00 | 54 | 1013.2 |
| 20260507032726 | 80 | 335 | 1.7 | 6.1 | 0.00 | 0.00 | 0.00 | 55 | 1013.3 |
| 20260507032223 | 80 | 306 | 1.7 | 7.0 | 0.00 | 0.00 | 0.00 | 54 | 1013.4 |
| 20260507031723 | 80 | 250 | 1.7 | 7.8 | 0.00 | 0.00 | 0.00 | 55 | 1013.5 |
| 20260507031220 | 81 | 295 | 1.7 | 7.0 | 0.00 | 0.00 | 0.00 | 55 | 1013.5 |
| 20260507030716 | 81 | 268 | 1.7 | 6.1 | 0.00 | 0.00 | 0.00 | 55 | 1013.6 |
| 20260507030211 | 81 | 266 | 1.7 | 6.1 | 0.00 | 0.00 | 0.00 | 58 | 1013.5 |
| 20260507025709 | 81 | 256 | 1.7 | 6.1 | 0.00 | 0.00 | 0.00 | 58 | 1013.4 |
| 20260507025207 | 81 | 336 | 1.7 | 6.1 | 0.00 | 0.00 | 0.00 | 58 | 1013.5 |
| 20260507024720 | 81 | 308 | 1.7 | 7.8 | 0.00 | 0.00 | 0.00 | 59 | 1013.6 |
| 20260507024210 | 80 | 325 | 1.7 | 7.8 | 0.00 | 0.00 | 0.00 | 60 | 1013.7 |
| 20260507023641 | 80 | 225 | 1.7 | 7.8 | 0.00 | 0.00 | 0.00 | 61 | 1013.6 |
| 20260507023114 | 80 | 330 | 2.6 | 7.8 | 0.00 | 0.00 | 0.00 | 61 | 1013.8 |
| 20260507022547 | 81 | 277 | 2.6 | 7.0 | 0.00 | 0.00 | 0.00 | 61 | 1013.8 |
| 20260507022242 | 81 | 305 | 2.6 | 8.7 | 0.00 | 0.00 | 0.00 | 63 | 1014.0 |
| 20260507021458 | 81 | 315 | 2.6 | 8.7 | 0.00 | 0.00 | 0.00 | 64 | 1014.3 |
| 20260507021159 | 80 | 247 | 1.7 | 6.1 | 0.00 | 0.00 | 0.00 | 65 | 1014.3 |
| 20260507020407 | 80 | 328 | 1.7 | 5.2 | 0.00 | 0.00 | 0.00 | 67 | 1014.4 |
| 20260507015841 | 79 | 260 | 1.7 | 7.0 | 0.00 | 0.00 | 0.00 | 68 | 1014.4 |
| 20260507015314 | 79 | 250 | 1.7 | 7.8 | 0.00 | 0.00 | 0.00 | 68 | 1014.5 |
| 20260507014753 | 79 | 289 | 1.7 | 7.8 | 0.00 | 0.00 | 0.00 | 67 | 1014.5 |
| 20260507014256 | 79 | 257 | 1.7 | 7.0 | 0.00 | 0.00 | 0.00 | 67 | 1014.7 |
| 20260507013727 | 80 | 308 | 1.7 | 6.1 | 0.00 | 0.00 | 0.00 | 67 | 1014.8 |
| 20260507013200 | 80 | 291 | 2.6 | 11.3 | 0.00 | 0.00 | 0.00 | 68 | 1014.8 |
| 20260507012634 | 79 | 236 | 2.6 | 11.3 | 0.00 | 0.00 | 0.00 | 68 | 1015.0 |
| 20260507012118 | 79 | 314 | 1.7 | 7.0 | 0.00 | 0.00 | 0.00 | 70 | 1015.1 |
| 20260507011538 | 79 | 316 | 1.7 | 5.2 | 0.00 | 0.00 | 0.00 | 72 | 1015.1 |
| 20260507011231 | 78 | 226 | 1.7 | 4.3 | 0.00 | 0.00 | 0.00 | 73 | 1015.2 |
| 20260507010449 | 78 | 249 | 1.7 | 7.8 | 0.00 | 0.00 | 0.00 | 73 | 1015.2 |
| 20260507005926 | 77 | 274 | 1.7 | 7.8 | 0.00 | 0.00 | 0.00 | 74 | 1015.3 |
| 20260507005357 | 76 | 292 | 0.9 | 7.0 | 0.00 | 0.00 | 0.00 | 76 | 1015.4 |
| 20260507004828 | 76 | 252 | 0.9 | 4.3 | 0.00 | 0.00 | 0.00 | 77 | 1015.5 |
| 20260507004302 | 75 | 243 | 1.7 | 4.3 | 0.00 | 0.00 | 0.00 | 79 | 1015.6 |
| 20260507003736 | 74 | 252 | 0.9 | 4.3 | 0.00 | 0.00 | 0.00 | 80 | 1015.6 |
| 20260507003235 | 74 | 306 | 0.9 | 4.3 | 0.00 | 0.00 | 0.00 | 81 | 1015.6 |
| 20260507002731 | 73 | 300 | 0.9 | 2.6 | 0.00 | 0.00 | 0.00 | 81 | 1015.7 |
| 20260507002230 | 73 | 300 | 0.9 | 3.5 | 0.00 | 0.00 | 0.00 | 81 | 1015.9 |
| 20260507001729 | 73 | 300 | 0.9 | 5.2 | 0.00 | 0.00 | 0.00 | 82 | 1015.9 |
| 20260507001450 | 73 | 256 | 0.9 | 5.2 | 0.00 | 0.00 | 0.00 | 82 | 1016.0 |
| 20260507000943 | 73 | 317 | 1.7 | 5.2 | 0.00 | 0.00 | 0.00 | 82 | 1016.2 |
| 20260507000223 | 73 | 306 | 1.7 | 5.2 | 0.00 | 0.00 | 0.00 | 82 | 1016.2 |
| 20260506235718 | 72 | 323 | 0.9 | 5.2 | 0.00 | 0.00 | 0.00 | 83 | 1016.5 |
| 20260506235218 | 72 | 282 | 0.9 | 3.5 | 0.00 | 0.00 | 0.00 | 84 | 1016.6 |
| 20260506234721 | 72 | 303 | 0.9 | 3.5 | 0.00 | 0.00 | 0.00 | 84 | 1016.7 |
| 20260506234220 | 72 | 251 | 0.9 | 3.5 | 0.00 | 0.00 | 0.00 | 85 | 1016.6 |
| 20260506233710 | 72 | 249 | 0.9 | 3.5 | 0.00 | 0.00 | 0.00 | 85 | 1016.8 |
| 20260506233211 | 71 | 263 | 0.9 | 3.5 | 0.00 | 0.00 | 0.00 | 85 | 1016.8 |
| 20260506232709 | 71 | 266 | 0.9 | 3.5 | 0.00 | 0.00 | 0.00 | 85 | 1016.9 |
| 20260506232203 | 71 | 241 | 0.9 | 7.8 | 0.00 | 0.00 | 0.00 | 86 | 1016.8 |
| 20260506231919 | 71 | 237 | 0.9 | 7.8 | 0.00 | 0.00 | 0.00 | 86 | 1016.9 |
| 20260506231159 | 71 | 266 | 0.9 | 7.8 | 0.00 | 0.00 | 0.00 | 86 | 1016.9 |
| 20260506230700 | 71 | 232 | 1.7 | 7.8 | 0.00 | 0.00 | 0.00 | 87 | 1016.8 |
| 20260506230134 | 71 | 254 | 2.6 | 7.8 | 0.00 | 0.00 | 0.00 | 88 | 1016.8 |
| 20260506225607 | 70 | 236 | 1.7 | 7.8 | 0.00 | 0.00 | 0.00 | 89 | 1016.8 |
| 20260506225324 | 70 | 213 | 0.9 | 8.7 | 0.00 | 0.00 | 0.00 | 90 | 1016.8 |
| 20260506224605 | 70 | 213 | 1.7 | 8.7 | 0.00 | 0.00 | 0.00 | 90 | 1016.8 |
| 20260506224101 | 69 | 254 | 2.6 | 9.6 | 0.00 | 0.00 | 0.00 | 91 | 1016.9 |
| 20260506223601 | 69 | 245 | 2.6 | 9.6 | 0.00 | 0.00 | 0.00 | 92 | 1016.8 |
| 20260506223059 | 68 | 256 | 2.6 | 9.6 | 0.00 | 0.00 | 0.00 | 93 | 1016.7 |
| 20260506222559 | 68 | 245 | 2.6 | 9.6 | 0.00 | 0.00 | 0.00 | 93 | 1016.5 |
| 20260506222059 | 68 | 259 | 1.7 | 6.1 | 0.00 | 0.00 | 0.00 | 94 | 1016.5 |
| 20260506221600 | 67 | 241 | 2.6 | 7.0 | 0.00 | 0.00 | 0.00 | 94 | 1016.6 |
| 20260506221059 | 67 | 245 | 1.7 | 7.0 | 0.00 | 0.00 | 0.00 | 94 | 1016.7 |
| 20260506220559 | 66 | 237 | 1.7 | 7.0 | 0.00 | 0.00 | 0.00 | 94 | 1016.6 |
| 20260506215532 | 65 | 247 | 1.7 | 7.8 | 0.00 | 0.00 | 0.00 | 94 | 1016.3 |
| 20260506215022 | 65 | 254 | 1.7 | 7.0 | 0.00 | 0.00 | 0.00 | 94 | 1016.2 |
| 20260506214523 | 65 | 260 | 1.7 | 5.2 | 0.00 | 0.00 | 0.00 | 94 | 1016.2 |
| 20260506214249 | 64 | 237 | 0.9 | 4.3 | 0.00 | 0.00 | 0.00 | 94 | 1016.1 |
| 20260506213521 | 64 | 231 | 0.9 | 3.5 | 0.00 | 0.00 | 0.00 | 94 | 1016.1 |
| 20260506213246 | 64 | 232 | 0.9 | 3.5 | 0.00 | 0.00 | 0.00 | 94 | 1016.1 |
| 20260506212521 | 64 | 235 | 0.0 | 2.6 | 0.00 | 0.00 | 0.00 | 94 | 1016.1 |
| 20260506212017 | 63 | 235 | 0.0 | 0.0 | 0.00 | 0.00 | 0.00 | 94 | 1016.2 |
| 20260506211517 | 63 | 235 | 0.0 | 0.0 | 0.00 | 0.00 | 0.00 | 94 | 1016.3 |
| 20260506211016 | 63 | 235 | 0.0 | 0.0 | 0.00 | 0.00 | 0.00 | 94 | 1016.2 |
| 20260506210729 | 63 | 235 | 0.0 | 3.5 | 0.00 | 0.00 | 0.00 | 94 | 1016.2 |
| 20260506210007 | 63 | 235 | 0.9 | 3.5 | 0.00 | 0.00 | 0.00 | 94 | 1016.1 |
| 20260506205505 | 63 | 235 | 0.9 | 3.5 | 0.00 | 0.00 | 0.00 | 94 | 1016.1 |
| 20260506205004 | 63 | 256 | 0.9 | 3.5 | 0.00 | 0.00 | 0.00 | 94 | 1016.1 |
| 20260506204502 | 63 | 189 | 0.9 | 3.5 | 0.00 | 0.00 | 0.00 | 94 | 1016.1 |
| 20260506204222 | 63 | 230 | 0.9 | 2.6 | 0.00 | 0.00 | 0.00 | 94 | 1016.1 |
| 20260506203505 | 63 | 227 | 0.9 | 4.3 | 0.00 | 0.00 | 0.00 | 94 | 1016.1 |
| 20260506203001 | 63 | 227 | 0.9 | 4.3 | 0.00 | 0.00 | 0.00 | 94 | 1016.0 |
| 20260506202721 | 62 | 133 | 0.9 | 2.6 | 0.00 | 0.00 | 0.00 | 93 | 1016.0 |
| 20260506202001 | 62 | 129 | 0.0 | 2.6 | 0.00 | 0.00 | 0.00 | 93 | 1016.0 |
| 20260506201459 | 62 | 129 | 0.0 | 2.6 | 0.00 | 0.00 | 0.00 | 93 | 1015.9 |
| 20260506200958 | 62 | 129 | 0.0 | 1.7 | 0.00 | 0.00 | 0.00 | 93 | 1015.9 |
| 20260506200459 | 62 | 129 | 0.0 | 1.7 | 0.00 | 0.00 | 0.00 | 93 | 1015.8 |
| 20260506200217 | 62 | 129 | 0.0 | 2.6 | 0.00 | 0.00 | 0.00 | 93 | 1015.7 |
| 20260506195716 | 62 | 129 | 0.0 | 2.6 | 0.00 | 0.00 | 0.00 | 93 | 1015.7 |
| 20260506194955 | 62 | 129 | 0.0 | 0.9 | 0.00 | 0.00 | 0.00 | 93 | 1015.5 |
| 20260506194447 | 62 | 129 | 0.0 | 0.9 | 0.00 | 0.00 | 0.00 | 93 | 1015.4 |
| 20260506194211 | 62 | 129 | 0.0 | 0.0 | 0.00 | 0.00 | 0.00 | 93 | 1015.3 |
| 20260506193443 | 62 | 129 | 0.0 | 0.9 | 0.00 | 0.00 | 0.00 | 93 | 1015.2 |
| 20260506192945 | 62 | 129 | 0.0 | 0.9 | 0.00 | 0.00 | 0.00 | 93 | 1015.1 |
| 20260506192421 | 62 | 129 | 0.0 | 0.0 | 0.00 | 0.00 | 0.00 | 93 | 1015.1 |
| 20260506191919 | 62 | 129 | 0.0 | 0.0 | 0.00 | 0.00 | 0.00 | 93 | 1015.2 |
| 20260506191418 | 62 | 130 | 0.0 | 0.0 | 0.00 | 0.00 | 0.00 | 93 | 1015.1 |
| 20260506190915 | 62 | 129 | 0.0 | 0.0 | 0.00 | 0.00 | 0.00 | 93 | 1015.1 |
| 20260506190640 | 62 | 130 | 0.0 | 1.7 | 0.00 | 0.00 | 0.00 | 93 | 1015.1 |
| 20260506185915 | 63 | 130 | 0.0 | 1.7 | 0.00 | 0.00 | 0.00 | 92 | 1015.1 |
| 20260506185413 | 63 | 130 | 0.0 | 0.9 | 0.00 | 0.00 | 0.00 | 92 | 1015.2 |
| 20260506185139 | 63 | 129 | 0.0 | 0.9 | 0.00 | 0.00 | 0.00 | 92 | 1015.1 |
| 20260506184409 | 63 | 129 | 0.0 | 0.0 | 0.00 | 0.00 | 0.00 | 92 | 1015.2 |
| 20260506183909 | 63 | 129 | 0.0 | 0.0 | 0.00 | 0.00 | 0.00 | 92 | 1015.3 |
| 20260506183400 | 63 | 129 | 0.0 | 0.0 | 0.00 | 0.00 | 0.00 | 92 | 1015.3 |
| 20260506182859 | 63 | 130 | 0.0 | 0.9 | 0.00 | 0.00 | 0.00 | 92 | 1015.2 |
| 20260506182621 | 63 | 129 | 0.0 | 0.9 | 0.00 | 0.00 | 0.00 | 92 | 1015.2 |
| 20260506181858 | 63 | 129 | 0.0 | 0.0 | 0.00 | 0.00 | 0.00 | 92 | 1015.2 |
| 20260506181343 | 63 | 129 | 0.0 | 0.9 | 0.00 | 0.00 | 0.00 | 92 | 1015.2 |
| 20260506181305 | 63 | 129 | 0.0 | 0.9 | 0.00 | 0.00 | 0.00 | 92 | 1015.3 |
| 20260506180932 | 63 | 129 | 0.0 | 0.9 | 0.00 | 0.00 | 0.00 | 92 | 1015.2 |
| 20260506175834 | 63 | 130 | 0.0 | 0.0 | 0.00 | 0.00 | 0.00 | 92 | 1015.3 |
| 20260506175330 | 63 | 129 | 0.0 | 0.0 | 0.00 | 0.00 | 0.00 | 92 | 1015.4 |
| 20260506174828 | 63 | 130 | 0.0 | 1.7 | 0.00 | 0.00 | 0.00 | 92 | 1015.3 |
| 20260506174547 | 63 | 129 | 0.0 | 1.7 | 0.00 | 0.00 | 0.00 | 92 | 1015.4 |
| 20260506173826 | 63 | 129 | 0.0 | 1.7 | 0.00 | 0.00 | 0.00 | 92 | 1015.4 |
| 20260506173544 | 64 | 129 | 0.0 | 1.7 | 0.00 | 0.00 | 0.00 | 92 | 1015.4 |
| 20260506172821 | 64 | 129 | 0.0 | 0.0 | 0.00 | 0.00 | 0.00 | 92 | 1015.3 |
| 20260506172314 | 64 | 129 | 0.0 | 0.0 | 0.00 | 0.00 | 0.00 | 92 | 1015.3 |
| 20260506172040 | 64 | 129 | 0.0 | 0.0 | 0.00 | 0.00 | 0.00 | 92 | 1015.4 |
| 20260506171534 | 64 | 129 | 0.0 | 0.0 | 0.00 | 0.00 | 0.00 | 92 | 1015.4 |
| 20260506171250 | 64 | 129 | 0.0 | 0.9 | 0.00 | 0.00 | 0.00 | 92 | 1015.4 |
| 20260506170301 | 64 | 129 | 0.0 | 0.9 | 0.00 | 0.00 | 0.00 | 92 | 1015.5 |
| 20260506165759 | 64 | 129 | 0.0 | 2.6 | 0.00 | 0.00 | 0.00 | 92 | 1015.5 |
| 20260506165259 | 64 | 129 | 0.0 | 2.6 | 0.00 | 0.00 | 0.00 | 92 | 1015.7 |
| 20260506165017 | 64 | 129 | 0.9 | 2.6 | 0.00 | 0.00 | 0.00 | 92 | 1015.7 |
| 20260506164257 | 64 | 129 | 0.9 | 2.6 | 0.00 | 0.00 | 0.00 | 92 | 1015.8 |
| 20260506163754 | 64 | 129 | 0.0 | 1.7 | 0.00 | 0.00 | 0.00 | 92 | 1015.9 |
| 20260506163254 | 64 | 129 | 0.0 | 1.7 | 0.00 | 0.00 | 0.00 | 91 | 1016.0 |
| 20260506162753 | 64 | 129 | 0.0 | 1.7 | 0.00 | 0.00 | 0.00 | 91 | 1015.9 |
| 20260506162736 | 64 | 130 | 0.0 | 1.7 | 0.00 | 0.00 | 0.00 | 92 | 1015.9 |
| 20260506161749 | 64 | 130 | 0.0 | 0.9 | 0.00 | 0.00 | 0.00 | 92 | 1015.9 |
| 20260506161247 | 64 | 129 | 0.0 | 0.9 | 0.00 | 0.00 | 0.00 | 92 | 1015.8 |
| 20260506160800 | 64 | 129 | 0.0 | 0.9 | 0.00 | 0.00 | 0.00 | 91 | 1015.7 |
| 20260506160235 | 64 | 130 | 0.0 | 0.0 | 0.00 | 0.00 | 0.00 | 91 | 1015.8 |
| 20260506155654 | 64 | 130 | 0.0 | 0.0 | 0.00 | 0.00 | 0.00 | 91 | 1015.8 |
| 20260506155126 | 64 | 130 | 0.0 | 0.0 | 0.00 | 0.00 | 0.00 | 91 | 1015.9 |
| 20260506154558 | 65 | 129 | 0.0 | 0.0 | 0.00 | 0.00 | 0.00 | 91 | 1015.8 |
| 20260506154033 | 65 | 129 | 0.0 | 0.0 | 0.00 | 0.00 | 0.00 | 91 | 1015.8 |
| 20260506153506 | 65 | 129 | 0.0 | 0.0 | 0.00 | 0.00 | 0.00 | 91 | 1015.8 |
| 20260506152940 | 65 | 129 | 0.0 | 0.0 | 0.00 | 0.00 | 0.00 | 91 | 1015.8 |
| 20260506152412 | 65 | 129 | 0.0 | 1.7 | 0.00 | 0.00 | 0.00 | 91 | 1016.0 |
| 20260506151846 | 65 | 129 | 0.0 | 1.7 | 0.00 | 0.00 | 0.00 | 91 | 1016.0 |
| 20260506151321 | 65 | 129 | 0.0 | 1.7 | 0.00 | 0.00 | 0.00 | 91 | 1016.0 |
| 20260506150757 | 65 | 129 | 0.0 | 0.0 | 0.00 | 0.00 | 0.00 | 91 | 1016.1 |
| 20260506150230 | 65 | 130 | 0.0 | 0.0 | 0.00 | 0.00 | 0.00 | 91 | 1016.2 |
| 20260506145705 | 65 | 129 | 0.0 | 0.0 | 0.00 | 0.00 | 0.00 | 91 | 1016.2 |
| 20260506145407 | 65 | 130 | 0.0 | 0.0 | 0.00 | 0.00 | 0.00 | 91 | 1016.2 |
| 20260506144613 | 65 | 130 | 0.0 | 0.0 | 0.00 | 0.00 | 0.00 | 91 | 1016.3 |
| 20260506144045 | 65 | 129 | 0.0 | 0.0 | 0.00 | 0.00 | 0.00 | 91 | 1016.3 |
| 20260506143521 | 65 | 130 | 0.0 | 0.0 | 0.00 | 0.00 | 0.00 | 91 | 1016.2 |
| 20260506142956 | 65 | 130 | 0.0 | 0.0 | 0.00 | 0.00 | 0.00 | 91 | 1016.5 |
| 20260506142653 | 65 | 129 | 0.0 | 0.9 | 0.00 | 0.00 | 0.00 | 91 | 1016.6 |
| 20260506141918 | 65 | 129 | 0.0 | 0.9 | 0.00 | 0.00 | 0.00 | 91 | 1016.6 |
| 20260506141637 | 65 | 129 | 0.0 | 1.7 | 0.00 | 0.00 | 0.00 | 90 | 1016.7 |
| 20260506140854 | 65 | 129 | 0.0 | 1.7 | 0.00 | 0.00 | 0.00 | 90 | 1016.6 |
| 20260506140342 | 65 | 129 | 0.0 | 1.7 | 0.00 | 0.00 | 0.00 | 90 | 1016.6 |
| 20260506135840 | 65 | 130 | 0.0 | 1.7 | 0.00 | 0.00 | 0.00 | 90 | 1016.6 |
| 20260506135340 | 65 | 130 | 0.0 | 1.7 | 0.00 | 0.00 | 0.00 | 89 | 1016.6 |
| 20260506134839 | 65 | 130 | 0.0 | 1.7 | 0.00 | 0.00 | 0.00 | 89 | 1016.5 |
| 20260506134336 | 66 | 130 | 0.0 | 1.7 | 0.00 | 0.00 | 0.00 | 89 | 1016.6 |
| 20260506133834 | 66 | 130 | 0.0 | 0.0 | 0.00 | 0.00 | 0.00 | 89 | 1016.6 |
| 20260506133336 | 66 | 130 | 0.0 | 0.0 | 0.00 | 0.00 | 0.00 | 89 | 1016.7 |
| 20260506132832 | 66 | 130 | 0.0 | 0.0 | 0.00 | 0.00 | 0.00 | 89 | 1016.7 |
| 20260506132330 | 66 | 130 | 0.0 | 0.0 | 0.00 | 0.00 | 0.00 | 89 | 1016.7 |
| 20260506131828 | 66 | 130 | 0.0 | 0.0 | 0.00 | 0.00 | 0.00 | 89 | 1016.7 |
| 20260506131330 | 66 | 130 | 0.0 | 0.0 | 0.00 | 0.00 | 0.00 | 88 | 1016.8 |
| 20260506131047 | 66 | 130 | 0.0 | 0.0 | 0.00 | 0.00 | 0.00 | 88 | 1016.9 |
| 20260506130326 | 67 | 130 | 0.0 | 0.0 | 0.00 | 0.00 | 0.00 | 88 | 1016.9 |
| 20260506125825 | 67 | 130 | 0.0 | 0.0 | 0.00 | 0.00 | 0.00 | 88 | 1016.9 |
| 20260506125551 | 67 | 130 | 0.0 | 0.0 | 0.00 | 0.00 | 0.00 | 88 | 1016.9 |
| 20260506124800 | 67 | 130 | 0.0 | 0.0 | 0.00 | 0.00 | 0.00 | 88 | 1017.0 |
| 20260506124232 | 67 | 130 | 0.0 | 0.0 | 0.00 | 0.00 | 0.00 | 88 | 1017.0 |
| 20260506123705 | 67 | 130 | 0.0 | 0.9 | 0.00 | 0.00 | 0.00 | 88 | 1017.1 |
| 20260506123200 | 67 | 129 | 0.0 | 0.9 | 0.00 | 0.00 | 0.00 | 88 | 1017.2 |
| 20260506122650 | 67 | 130 | 0.0 | 1.7 | 0.00 | 0.00 | 0.00 | 88 | 1017.2 |
| 20260506122125 | 67 | 130 | 0.0 | 1.7 | 0.00 | 0.00 | 0.00 | 88 | 1016.9 |
| 20260506121615 | 67 | 130 | 0.0 | 0.9 | 0.00 | 0.00 | 0.00 | 88 | 1016.9 |
| 20260506121114 | 68 | 130 | 0.0 | 1.7 | 0.00 | 0.00 | 0.00 | 88 | 1017.0 |
| 20260506120549 | 68 | 130 | 0.0 | 1.7 | 0.00 | 0.00 | 0.00 | 88 | 1017.2 |
| 20260506120028 | 68 | 130 | 0.0 | 1.7 | 0.00 | 0.00 | 0.00 | 88 | 1017.2 |
| 20260506115458 | 68 | 129 | 0.9 | 1.7 | 0.00 | 0.00 | 0.00 | 88 | 1017.2 |
| 20260506114954 | 68 | 129 | 0.9 | 2.6 | 0.00 | 0.00 | 0.00 | 88 | 1017.2 |
| 20260506114453 | 68 | 129 | 0.9 | 2.6 | 0.00 | 0.00 | 0.00 | 89 | 1017.3 |
| 20260506114213 | 68 | 130 | 0.9 | 1.7 | 0.00 | 0.00 | 0.00 | 89 | 1017.4 |
| 20260506113721 | 68 | 130 | 0.9 | 1.7 | 0.00 | 0.00 | 0.00 | 88 | 1017.4 |
| 20260506113213 | 68 | 130 | 0.9 | 1.7 | 0.00 | 0.00 | 0.00 | 88 | 1017.5 |
| 20260506112447 | 68 | 130 | 0.9 | 1.7 | 0.00 | 0.00 | 0.00 | 88 | 1017.5 |
| 20260506112405 | 68 | 130 | 0.9 | 3.5 | 0.00 | 0.00 | 0.00 | 88 | 1017.5 |
| 20260506112033 | 68 | 129 | 0.9 | 1.7 | 0.00 | 0.00 | 0.00 | 88 | 1017.6 |
| 20260506110938 | 68 | 130 | 1.7 | 3.5 | 0.00 | 0.00 | 0.00 | 88 | 1017.4 |
| 20260506110435 | 68 | 130 | 1.7 | 3.5 | 0.00 | 0.00 | 0.00 | 89 | 1017.4 |
| 20260506105934 | 68 | 130 | 1.7 | 2.6 | 0.00 | 0.00 | 0.00 | 89 | 1017.4 |
| 20260506105658 | 68 | 130 | 0.9 | 3.5 | 0.00 | 0.00 | 0.00 | 89 | 1017.4 |
| 20260506104934 | 68 | 130 | 0.9 | 3.5 | 0.00 | 0.00 | 0.00 | 89 | 1017.5 |
| 20260506104406 | 68 | 130 | 1.7 | 3.5 | 0.00 | 0.00 | 0.00 | 89 | 1017.5 |
| 20260506103840 | 68 | 146 | 1.7 | 3.5 | 0.00 | 0.00 | 0.00 | 89 | 1017.5 |
| 20260506103534 | 68 | 124 | 0.9 | 2.6 | 0.00 | 0.00 | 0.00 | 89 | 1017.5 |